Location: Opole
(50.6751°N, 17.9213°E)
Time: 19:17:46
(UTC+01:00)

ISS - Visible Passes

Search period start: 21 March 2019 00:00
Search period end: 31 March 2019 00:00
Orbit: 406 x 411 km, 51.6° (Epoch: 21 March)

Date Brightness Start Highest point End Pass type
(mag) Time Alt. Az. Time Alt. Az. Time Alt. Az.
22 Mar -2.5 19:38:26 10° SSW 19:40:42 25° SSE 19:40:42 25° SSE visible
23 Mar -2.1 18:48:05 10° S 18:50:21 17° SE 18:52:19 11° ESE visible
23 Mar -2.4 20:23:11 10° WSW 20:25:05 31° SW 20:25:05 31° SW visible
24 Mar -3.5 19:32:15 10° SW 19:35:25 46° SSE 19:36:30 32° ESE visible
24 Mar -0.9 21:08:37 10° W 21:09:16 15° W 21:09:16 15° W visible
25 Mar -2.9 18:41:27 10° SSW 18:44:25 31° SSE 18:47:24 10° E visible
25 Mar -3.7 20:17:29 10° WSW 20:20:31 74° W 20:20:31 74° W visible
26 Mar -3.9 19:26:22 10° WSW 19:29:40 76° SSE 19:31:39 22° E visible
26 Mar -1.5 21:03:00 10° W 21:04:24 23° W 21:04:24 23° W visible
27 Mar -3.8 20:11:49 10° W 20:15:06 73° N 20:15:26 66° NE visible
28 Mar -3.8 19:20:37 10° W 19:23:56 81° N 19:26:23 17° ENE visible
28 Mar -2.0 20:57:17 10° WNW 20:59:07 31° WNW 20:59:07 31° WNW visible
29 Mar -3.8 20:06:05 10° W 20:09:24 75° N 20:10:01 54° ENE visible
29 Mar -0.5 21:42:43 10° W 21:42:45 10° W 21:42:45 10° W visible
30 Mar -3.7 19:14:53 10° W 19:18:11 72° N 19:20:53 14° E visible
30 Mar -2.4 20:51:30 10° WNW 20:53:37 36° W 20:53:37 36° W visible
